Weather observations for the past three days for
Montgomery, Dannelly Field
Imperial (Metric)
Date Time (cdt) Wind (mph) Vis. (mi.) Weather Sky Cond. Temperature (ºF) Relative Humidity Wind Chill (°F) Heat Index (°F) Pressure Precipitation (in)
Air Dwpt 6 hour altimeter (in) sea level (mb) 1 hr 3 hr 6 hr
Max. Min.
12 23:53 Calm 10.00 Fair CLR 70 66.9 90% 29.92 1013.0
12 22:53 Calm 10.00 Fair CLR 71.1 66.9 87% 29.93 1013.3
12 21:53 Calm 10.00 Fair CLR 73 68 84% 29.93 1013.1
12 20:53 Calm 10.00 Fair CLR 75.9 68 77% 77 29.92 1012.8
12 18:53 W 5 10.00 Fair CLR 84 66 89.1 84 55% 86 29.92 1012.7
12 17:53 W 3 10.00 Fair CLR 88 64 45% 89 29.91 1012.4
12 16:53 Calm 10.00 Fair CLR 87.1 63 45% 88 29.91 1012.5
12 15:53 N 6 10.00 Fair CLR 87.1 62.1 43% 88 29.91 1012.6
12 14:53 NE 3 10.00 Fair CLR 87.1 62.1 43% 88 29.93 1013.1
12 13:53 N 6 10.00 Fair CLR 86 62.1 45% 87 29.94 1013.4
12 12:53 NW 5 10.00 Fair CLR 86 61 87.1 68 43% 86 29.95 1013.8
12 11:53 NW 6 10.00 Fair CLR 86 64 48% 87 29.96 1014.1
12 10:53 Calm 10.00 Fair CLR 84 62.1 48% 85 29.97 1014.4
12 09:53 Calm 10.00 Fair CLR 79 62.1 56% 80 29.98 1014.7
12 08:53 NE 5 10.00 Fair CLR 75.9 62.1 62% 78 29.97 1014.6
12 06:53 N 3 10.00 Fair CLR 69.1 61 69.1 63 76% 29.95 1013.9
12 05:53 NW 3 10.00 Fair CLR 64.9 62.1 90% 29.93 1013.4
12 04:53 Calm 10.00 Fair CLR 64.9 63 93% 29.92 1013.0
12 03:53 Calm 10.00 Fair CLR 64 62.1 93% 29.92 1012.8
12 02:53 Calm 10.00 Fair CLR 64.9 62.1 90% 29.91 1012.7
12 01:53 Calm 10.00 Fair CLR 64.9 63 93% 29.91 1012.6
12 00:53 Calm 10.00 Fair CLR 66 63 84 66 90% 29.92 1012.8
11 23:53 Calm 10.00 Fair CLR 70 64 82% 29.92 1012.8
11 22:53 NW 6 10.00 Fair CLR 71.1 64.9 81% 29.91 1012.6
11 21:53 W 5 10.00 Fair CLR 73 64 74% 29.91 1012.4
11 20:53 W 5 10.00 Fair CLR 73 64.9 76% 29.9 1012.2
11 19:53 W 5 10.00 Fair CLR 75 64.9 71% 77 29.89 1011.9
11 18:53 NE 6 10.00 Fair CLR 84 57.9 89.1 84 41% 83 29.87 1011.2
11 17:53 N 6 10.00 Fair CLR 84.9 55.9 37% 84 29.86 1010.7
11 16:53 NW 6 10.00 Fair CLR 86 57 37% 85 29.86 1010.9
11 15:53 NW 5 10.00 Fair CLR 88 57 35% 87 29.87 1011.1
11 14:53 N 5 10.00 Fair CLR 87.1 55.9 35% 86 29.88 1011.4
11 13:53 NW 5 10.00 Fair CLR 86 55.9 36% 85 29.89 1011.9
11 12:53 Vrbl 6 10.00 Fair CLR 87.1 57.9 87.1 70 37% 86 29.9 1012.2
11 11:53 N 8 10.00 Fair CLR 86 60.1 42% 86 29.91 1012.6
11 10:53 NE 7 10.00 Fair CLR 82.9 57.9 43% 83 29.92 1012.8
11 09:53 N 6 10.00 Fair CLR 81 59 47% 81 29.92 1012.9
11 08:53 N 6 10.00 Fair CLR 75.9 60.1 58% 78 29.92 1012.9
11 07:53 NE 9 10.00 Fair CLR 73.9 59 60% 29.92 1012.7
11 06:53 N 3 10.00 Fair CLR 70 60.1 72 64 71% 29.92 1012.9
11 05:53 N 7 10.00 Fair CLR 66.9 61 81% 29.9 1012.3
11 04:53 Calm 10.00 Fair CLR 64 61 90% 29.89 1012.0
11 03:53 S 3 10.00 Fair CLR 64.9 62.1 90% 29.87 1011.2
11 02:53 N 5 10.00 Fair CLR 66.9 62.1 84% 29.86 1010.8
11 01:53 NW 3 10.00 Fair CLR 66.9 62.1 84% 29.87 1011.0
10 23:53 N 5 10.00 Fair CLR 73 62.1 69% 29.87 1011.1
10 22:53 N 6 10.00 Fair CLR 73.9 62.1 67% 29.86 0.0
10 21:53 N 3 10.00 Fair CLR 77 60.1 56% 79 29.85 1010.4
10 20:53 N 7 10.00 Fair CLR 79 57 47% 80 29.82 1009.5
10 19:53 N 6 10.00 Fair CLR 81 57 44% 81 29.8 1008.9
10 18:53 N 8 10.00 Fair CLR 84.9 55.9 91.9 84.9 37% 84 29.79 1008.4
10 17:53 N 10 10.00 Fair CLR 88 64.9 46% 90 29.78 1008.2
10 16:53 N 10 10.00 A Few Clouds FEW045 89.1 69.1 52% 94 29.78 1008.1
10 15:53 N 10 10.00 Mostly Cloudy FEW047 SCT060 BKN075 90 70 52% 95 29.78 1008.2
10 14:53 NW 12 10.00 A Few Clouds FEW036 91 71.1 52% 98 29.79 1008.4
10 13:53 N 6 10.00 Mostly Cloudy SCT039 SCT048 BKN065 90 72 56% 97 29.82 1009.5
10 12:53 NW 5 10.00 Mostly Cloudy SCT039 BKN050 89.1 72 90 77 57% 96 29.84 1010.2
10 11:53 N 5 10.00 Fair CLR 89.1 71.1 55% 95 29.85 1010.3
10 10:53 Vrbl 3 0.00 Partly Cloudy SCT075 0 0 0% 29.85 0.0
10 09:53 N 5 10.00 Fair CLR 84 71.1 65% 89 29.84 1010.3
10 08:53 N 8 10.00 Fair CLR 82 71.1 69% 86 29.85 1010.4
10 07:53 NE 6 10.00 Fair CLR 80.1 71.1 74% 84 29.84 1010.3
10 06:53 N 3 10.00 Fair CLR 77 73 78.1 73.9 88% 78 29.84 1010.0
10 05:53 NW 3 7.00 Fair CLR 73.9 72 94% 29.81 1009.3
10 04:53 W 5 9.00 Fair CLR 75 72 90% 74 29.82 1009.4
10 03:53 SW 3 10.00 A Few Clouds FEW050 75 72 90% 74 29.81 1009.2
10 02:53 SW 5 10.00 Fair CLR 77 73 88% 78 29.81 1009.0
10 01:53 SW 7 10.00 Fair CLR 77 73 88% 78 29.82 1009.3
10 00:53 SW 6 10.00 Fair CLR 78.1 73 88 75.9 85% 81 29.82 1009.4
Date Time (cdt) Wind (mph) Vis. (mi.) Weather Sky Cond. Air Dwpt Max. Min. Relative Humidity Wind Chill (°F) Heat Index (°F) altimeter (in) sea level (mb) 1 hr 3 hr 6 hr
6 hour
Temperature (ºF) Pressure Precipitation (in)